Location: Unspecified
(54.1780°N, 0.0000°E)
Time: 09:44:20
(UTC+00:00)

Altair - Pass Details

Date: 20 June 2019
Orbit: 1501 x 1683 km, 47.2° (Epoch: 17 July)

Event Time Altitude Azimuth Distance (km) Brightness Sun altitude
Rises 21:20:06 0° 237° (WSW) 4,736 10.1 -5.0°
Reaches altitude 10° 21:23:14 10° 232° (SW) 3,778 9.5 -5.2°
Maximum altitude 21:32:22 50° 161° (SSE) 1,982 7.8 -6.0°
Drops below altitude 10° 21:41:51 10° 90° (E) 3,914 9.3 -6.8°
Sets 21:45:08 0° 85° (E) 4,918 9.9 -7.0°
